This is the latest recevied weather packets stored in our database for station/object EA1GGY-1. If no packets are shown the sender has not sent any weather packets the latest 10 day(s).
| Time | Temp. | Humidity | Pressure | Rain* | Wind** | Luminosity | Snow |
|---|---|---|---|---|---|---|---|
| 1777936210 | 6.67° C | 77% | 1009.6 hPa | - | - | - | - |
| 1777935609 | 7.22° C | 76% | 1009.6 hPa | - | - | - | - |
| 1777935008 | 6.67° C | 77% | 1009.6 hPa | - | - | - | - |
| 1777934407 | 7.22° C | 76% | 1009.8 hPa | - | - | - | - |
| 1777933808 | 6.67° C | 78% | 1009.8 hPa | - | - | - | - |
| 1777933205 | 7.22° C | 77% | 1009.8 hPa | - | - | - | - |
| 1777932605 | 6.67° C | 76% | 1009.9 hPa | - | - | - | - |
| 1777932005 | 7.78° C | 76% | 1010 hPa | - | - | - | - |
| 1777931403 | 7.22° C | 77% | 1010 hPa | - | - | - | - |
| 1777930802 | 6.67° C | 78% | 1009.9 hPa | - | - | - | - |
| 1777930202 | 7.22° C | 78% | 1009.9 hPa | - | - | - | - |
| 1777929601 | 7.22° C | 79% | 1010 hPa | - | - | - | - |
| 1777929000 | 7.22° C | 79% | 1010 hPa | - | - | - | - |
| 1777928399 | 7.78° C | 78% | 1009.8 hPa | - | - | - | - |
| 1777927800 | 7.78° C | 76% | 1009.8 hPa | - | - | - | - |
| 1777927198 | 8.33° C | 75% | 1009.7 hPa | - | - | - | - |
| 1777926597 | 7.78° C | 76% | 1009.7 hPa | - | - | - | - |
| 1777925995 | 7.22° C | 77% | 1009.7 hPa | - | - | - | - |
| 1777925394 | 7.78° C | 77% | 1009.5 hPa | - | - | - | - |
| 1777924793 | 7.78° C | 77% | 1009.4 hPa | - | - | - | - |
| 1777924193 | 8.33° C | 76% | 1009.3 hPa | - | - | - | - |
| 1777923592 | 7.78° C | 76% | 1009.2 hPa | - | - | - | - |
| 1777922991 | 8.33° C | 75% | 1009.2 hPa | - | - | - | - |
| 1777922390 | 7.78° C | 75% | 1009.2 hPa | - | - | - | - |
| 1777921790 | 8.33° C | 76% | 1009.1 hPa | - | - | - | - |
* Rain since midnight (hover to see other rain measurements)
** Current wind speed in m/s (hover to see current wind gust speed)